Location: Holyhead Bay
(53.3667°N, 4.6667°W)
Time: 06:47:41
(UTC+00:00)

Aureole 2 Rocket - Pass Details

Date: 24 November 2020
Orbit: 289 x 389 km, 73.9° (Epoch: 23 January)

Event Time Altitude Azimuth Distance (km) Brightness Sun altitude
Rises 17:16:30 0° 324° (NW) 2,058 6.0 -9.5°
Maximum altitude 17:20:51 24° 252° (WSW) 748 4.6 -10.1°
Drops below altitude 10° 17:23:10 10° 196° (SSW) 1,284 5.2 -10.5°
Sets 17:25:22 0° 182° (S) 2,146 6.2 -10.8°
